Tracking 30102 objects as of 12-Dec-2024
HD Live streaming from Space Station
objects crossing your sky now

STARLINK-6307

Track STARLINK-6307 now!
10-day predictions
STARLINK-6307 is classified as:


NORAD ID: 56529
Int'l Code: 2023-065AC
Perigee: 565.3 km
Apogee: 567.1 km
Inclination: 43.0 °
Period: 95.8 minutes
Semi major axis: 6937 km
RCS: Unknown
Launch date: May 14, 2023
Source: United States (US)
Launch site: AIR FORCE EASTERN TEST RANGE (AFETR)
Your satellite tracking list
Your tracking list is empty




NASA's NSSDC Master Catalog

Two Line Element Set (TLE):
1 56529U 23065AC  24347.12473365  .00000126  00000-0  24416-4 0  9994
2 56529  43.0027 136.7434 0001333 266.9370  93.1320 15.02536586 87910
Source of the keplerian elements: AFSPC